Date,TemperatureHighF,TemperatureAvgF,TemperatureLowF,DewpointHighF,DewpointAvgF,DewpointLowF,HumidityHigh,HumidityAvg,HumidityLow,PressureMaxIn,PressureMinIn,WindSpeedMaxMPH,WindSpeedAvgMPH,GustSpeedMaxMPH,PrecipitationSumIn
2014-1-1,48,33,22,28,22,18,85,66,38,30.14,29.89,4,1,0,0.00
2014-1-2,40,33,26,37,29,14,98,84,53,29.88,29.38,12,1,0,0.16
2014-1-3,28,19,15,14,5,1,62,53,41,30.20,29.56,14,4,0,0.02
2014-1-4,40,25,10,17,10,5,84,56,27,30.23,30.01,4,1,0,0.00
2014-1-5,39,35,30,39,32,15,98,90,50,30.00,29.49,3,0,0,0.11
2014-1-6,40,27,5,37,13,-17,98,58,30,29.95,29.39,15,6,0,0.16
2014-1-7,26,11,0,2,-10,-17,68,39,16,30.21,29.96,10,3,0,0.00
2014-1-8,43,23,6,14,6,0,76,52,18,30.31,30.18,6,1,0,0.00
2014-1-9,51,32,20,22,14,-1,78,53,11,30.32,30.20,3,0,0,0.00
2014-1-10,44,39,33,43,34,13,98,87,36,30.22,29.84,2,0,0,0.89
2014-1-11,50,44,41,50,43,36,98,95,72,29.83,29.34,5,1,0,1.21
2014-1-12,58,45,31,35,25,13,77,47,17,29.89,29.47,14,4,0,0.01
2014-1-13,52,39,26,41,31,23,98,74,52,29.88,29.68,4,0,0,0.00
2014-1-14,58,44,34,46,36,26,98,76,30,29.71,29.53,9,2,0,0.21
2014-1-15,53,35,26,34,29,22,98,80,46,29.70,29.61,10,2,0,0.00
2014-1-16,42,30,23,21,16,11,78,58,28,29.78,29.63,6,2,0,0.02
2014-1-17,47,32,20,28,20,16,86,63,37,29.72,29.55,6,1,0,0.00
2014-1-18,36,28,20,16,10,0,71,47,33,29.81,29.62,11,3,0,0.00
2014-1-19,47,32,19,25,19,14,81,59,38,29.70,29.64,8,2,0,0.00
2014-1-20,64,45,27,20,15,3,71,35,9,29.64,29.50,9,2,0,0.00
2014-1-21,47,34,21,30,21,8,73,58,46,29.61,29.28,11,2,0,0.00
2014-1-22,33,22,14,8,-3,-16,59,35,12,29.82,29.61,9,3,0,0.00
2014-1-23,34,22,11,6,0,-9,61,39,23,30.22,29.80,11,4,0,0.00
2014-1-24,29,15,5,-4,-13,-32,48,32,6,30.34,29.93,9,3,0,0.00
2014-1-25,35,23,8,17,6,-3,69,49,24,29.92,29.37,12,3,0,0.01
2014-1-26,52,36,18,18,2,-19,54,29,5,29.67,29.53,9,3,0,0.00
2014-1-27,58,37,25,33,18,-14,73,47,16,29.86,29.54,9,3,0,0.00
2014-1-28,25,19,16,12,5,-7,80,58,24,30.09,29.86,7,1,0,0.00
2014-1-29,31,18,9,11,-3,-13,83,42,17,30.10,29.91,7,2,0,0.06
2014-1-30,38,18,2,6,-1,-8,69,44,20,30.17,29.96,4,1,0,0.02
2014-1-31,51,30,13,17,11,4,76,48,15,29.96,29.85,3,0,0,0.02
2014-2-1,59,42,23,24,16,5,73,41,12,30.00,29.83,7,1,0,0.00
2014-2-2,62,45,28,39,31,21,80,59,37,29.85,29.73,5,1,0,0.00
2014-2-3,58,46,32,53,40,28,98,82,46,29.99,29.59,7,1,0,1.02
2014-2-4,45,38,33,35,31,27,98,76,55,30.15,29.86,3,1,0,0.13
2014-2-5,61,41,33,46,33,21,98,76,36,29.88,29.51,13,3,0,0.10
2014-2-6,45,34,27,21,18,15,63,52,33,30.08,29.89,7,2,0,0.00
2014-2-7,47,35,27,27,22,19,75,60,42,30.10,29.98,4,1,0,0.00
2014-2-8,47,38,31,30,25,21,75,60,43,30.02,29.86,4,1,0,0.00
2014-2-9,53,41,29,34,29,23,84,64,46,29.92,29.69,9,2,0,0.00
2014-2-10,42,37,29,30,24,13,72,60,50,29.99,29.78,4,1,0,0.00
2014-2-11,41,30,22,17,14,11,77,52,31,30.12,29.97,4,1,0,0.00
2014-2-12,27,23,21,26,15,7,98,71,45,30.17,29.61,6,1,0,0.00
2014-2-13,42,33,27,32,27,18,98,80,48,29.60,29.22,13,3,0,0.72
2014-2-14,55,43,33,29,23,17,66,45,27,29.50,29.38,8,3,0,0.20
2014-2-15,38,34,24,34,20,11,98,60,38,29.81,29.30,21,3,0,0.02
2014-2-16,49,35,22,26,19,12,72,53,35,29.92,29.75,10,2,0,0.00
2014-2-17,44,35,25,25,21,18,77,58,40,30.11,29.92,5,1,0,0.00
2014-2-18,63,42,26,31,24,0,90,56,8,29.97,29.81,5,1,0,0.00
2014-2-19,69,51,36,50,36,26,98,61,29,29.83,29.64,10,2,0,0.18
2014-2-20,60,49,43,42,36,32,82,62,47,29.95,29.68,4,0,0,0.03
2014-2-21,64,52,41,58,31,-17,98,56,4,29.78,29.54,11,3,0,0.65
2014-2-22,66,49,35,26,18,6,66,33,10,29.95,29.77,7,1,0,0.01
2014-2-23,70,49,28,33,24,14,79,45,13,29.84,29.61,7,1,0,0.00
2014-2-24,57,46,36,32,15,1,64,34,11,29.88,29.67,9,4,0,0.00
2014-2-25,54,40,27,21,15,6,62,38,15,29.84,29.68,10,2,0,0.00
2014-2-26,49,35,24,22,16,9,66,46,28,29.72,29.55,8,2,0,0.00
2014-2-27,51,34,18,12,-4,-39,71,30,2,29.75,29.52,14,3,0,0.00
2014-2-28,48,30,17,13,8,4,64,42,20,30.05,29.76,6,1,0,0.00
2014-3-1,51,36,24,22,16,9,68,45,28,30.11,29.95,6,0,0,0.00
2014-3-2,71,50,28,49,35,21,83,61,35,30.00,29.63,8,1,0,0.00
2014-3-3,54,39,24,50,36,20,98,86,80,30.01,29.53,6,1,0,0.27
2014-3-4,40,27,14,19,13,6,88,60,32,30.11,29.93,4,1,0,0.09
2014-3-5,59,38,23,30,22,14,85,56,25,30.05,29.84,4,1,0,0.00
2014-3-6,42,34,27,29,19,12,89,58,33,30.16,29.91,5,1,0,0.00
2014-3-7,49,38,32,38,33,29,98,84,60,29.90,29.70,4,0,0,1.57
2014-3-8,68,52,36,41,33,20,87,53,16,29.83,29.69,8,2,0,0.04
2014-3-9,68,55,45,37,29,11,63,40,12,29.86,29.73,9,3,0,0.00
2014-3-10,75,55,36,35,23,8,65,33,8,29.77,29.53,8,2,0,0.00
2014-3-11,78,60,43,36,30,18,71,38,11,29.57,29.37,7,2,0,0.00
2014-3-12,68,54,49,58,44,33,98,69,43,29.40,28.97,17,2,0,0.11
2014-3-13,44,37,28,12,-1,-8,48,21,11,29.98,29.81,6,2,0,0.00
2014-3-14,60,42,22,23,11,3,72,34,11,30.05,29.80,10,2,0,0.00
2014-3-15,72,55,38,34,21,5,65,31,8,29.80,29.69,14,2,0,0.00
2014-3-16,52,42,34,39,30,22,98,66,31,29.80,29.61,8,1,0,0.49
2014-3-17,34,31,29,32,28,25,98,87,81,29.76,29.59,5,2,0,0.20
2014-3-18,46,36,29,37,32,25,98,84,67,29.94,29.72,6,1,0,0.02
2014-3-19,45,40,36,42,38,35,98,94,86,29.95,29.69,5,1,0,0.04
2014-3-20,66,50,36,40,22,-3,98,48,7,29.81,29.67,12,3,0,0.00
2014-3-21,69,51,29,29,21,12,78,36,11,29.89,29.70,10,2,0,0.00
2014-3-22,71,56,40,39,34,27,74,47,23,29.76,29.64,8,2,0,0.00
2014-3-23,53,46,36,42,33,20,90,61,38,29.90,29.68,5,1,0,0.34
2014-3-24,53,38,24,22,15,6,69,43,17,30.02,29.77,6,1,0,0.00
2014-3-25,46,36,31,35,25,16,88,67,46,29.78,29.50,9,2,0,0.40
2014-3-26,46,34,25,20,9,1,70,38,16,30.05,29.75,11,4,0,0.00
2014-3-27,58,40,21,22,16,11,76,42,17,30.20,29.95,9,2,0,0.00
2014-3-28,59,51,42,52,42,22,98,71,40,29.97,29.84,3,0,0,0.00
2014-3-29,62,55,46,61,54,37,98,96,71,29.87,29.32,10,1,0,0.80
2014-3-30,57,44,36,35,28,23,70,53,27,29.73,29.42,22,7,0,0.03
2014-3-31,79,58,43,31,14,-12,48,23,3,29.89,29.73,11,3,0,0.00
2014-4-1,82,61,43,39,29,17,70,37,9,29.87,29.69,7,1,0,0.00
2014-4-2,86,66,43,43,36,30,75,38,15,29.85,29.69,9,2,0,0.00
2014-4-3,74,59,49,53,48,39,87,68,45,29.85,29.63,4,1,0,0.07
2014-4-4,75,64,50,57,52,44,98,67,40,29.66,29.46,11,3,0,0.00
2014-4-5,70,57,46,46,33,22,65,42,18,29.83,29.57,8,3,0,0.00
2014-4-6,62,50,36,34,29,26,72,48,28,29.97,29.83,8,1,0,0.00
2014-4-7,53,47,45,48,45,34,98,95,49,29.85,29.41,4,1,0,1.63
2014-4-8,67,55,48,49,41,35,98,63,33,29.49,29.35,9,3,0,0.01
2014-4-9,67,54,44,42,34,21,66,48,19,29.86,29.48,9,2,0,0.00
2014-4-10,71,55,34,38,31,24,90,47,17,30.03,29.85,8,2,0,0.00
2014-4-11,77,60,41,42,37,31,84,49,20,29.95,29.76,9,2,0,0.00
2014-4-12,83,65,46,49,44,40,84,52,28,29.99,29.82,6,1,0,0.00
2014-4-13,81,65,48,54,50,46,90,62,34,29.94,29.77,7,2,0,0.00
2014-4-14,72,64,60,63,57,53,98,77,57,29.78,29.53,9,2,0,0.08
2014-4-15,65,52,33,64,48,21,98,87,58,29.81,29.37,15,3,0,1.58
2014-4-16,60,42,27,26,19,10,71,44,14,30.20,29.82,6,2,0,0.00
2014-4-17,64,45,28,29,24,12,85,50,14,30.34,30.15,7,1,0,0.00
2014-4-18,55,46,35,43,37,27,90,71,56,30.22,30.00,4,1,0,0.00
2014-4-19,66,55,46,49,42,36,98,68,36,30.01,29.92,7,1,0,0.04
2014-4-20,77,58,44,42,32,18,84,45,11,30.09,29.93,8,1,0,0.00
2014-4-21,79,58,37,45,38,33,88,52,19,29.97,29.66,5,1,0,0.00
2014-4-22,75,62,48,59,50,44,89,68,42,29.66,29.43,5,1,0,0.01
2014-4-23,75,61,49,52,26,9,81,30,8,29.76,29.48,9,3,0,0.00
2014-4-24,71,55,37,42,34,27,80,48,26,29.90,29.70,5,1,0,0.00
2014-4-25,67,56,47,62,50,40,98,79,58,29.70,29.49,12,2,0,0.22
2014-4-26,83,64,43,49,37,11,98,47,7,29.77,29.62,8,2,0,0.00
2014-4-27,86,67,46,51,42,35,86,47,17,29.77,29.63,6,1,0,0.00
2014-4-28,63,58,51,56,52,48,98,80,64,29.76,29.65,5,1,0,0.07
2014-4-29,54,52,50,53,51,49,98,98,98,29.82,29.64,5,1,0,1.51
2014-4-30,71,60,52,67,58,51,98,94,84,29.81,29.60,4,1,0,0.11
2014-5-1,79,66,56,64,52,36,98,65,33,29.65,29.49,7,1,0,0.03
2014-5-2,72,60,47,47,40,34,79,49,27,29.70,29.55,7,2,0,0.00
2014-5-3,75,63,51,48,40,31,85,49,21,29.68,29.57,7,2,0,0.00
2014-5-4,85,69,51,45,42,36,77,42,19,29.76,29.56,9,2,0,0.00
2014-5-5,82,66,53,56,51,45,89,62,37,29.76,29.54,6,1,0,0.00
2014-5-6,85,65,49,60,54,49,98,73,34,29.72,29.60,5,1,0,0.00
2014-5-7,84,68,56,64,60,55,98,78,45,29.91,29.73,5,1,0,0.00
2014-5-8,90,72,57,68,54,39,98,62,19,29.94,29.78,6,1,0,0.00
2014-5-9,86,70,56,64,58,55,98,70,39,29.90,29.75,7,2,0,0.00
2014-5-10,73,67,61,68,63,58,98,89,65,29.85,29.75,6,1,0,0.23
2014-5-11,88,70,56,67,58,51,98,70,31,29.91,29.80,4,1,0,0.03
2014-5-12,90,72,56,67,60,56,98,72,35,29.95,29.83,5,1,0,0.00
2014-5-13,93,75,61,68,62,56,98,70,32,29.90,29.78,6,1,0,0.00
2014-5-14,88,74,62,68,63,57,98,71,42,29.89,29.75,8,2,0,0.00
2014-5-15,72,68,65,71,65,59,98,93,66,29.79,29.61,4,2,0,1.29
2014-5-22,82,75,70,63,61,59,79,61,48,29.70,29.63,3,1,0,0.00
2014-5-23,84,72,62,64,54,41,88,60,25,29.79,29.67,7,2,0,0.00
2014-5-24,84,67,53,53,47,44,82,53,26,29.90,29.75,4,1,0,0.00
2014-5-25,81,67,53,59,54,49,98,64,41,29.95,29.83,4,1,0,0.00
2014-5-26,89,74,59,68,63,58,98,70,42,29.94,29.76,4,1,0,0.00
2014-5-27,84,73,61,69,64,59,98,77,50,29.84,29.69,6,1,0,0.00
2014-5-28,91,75,62,67,62,57,98,68,34,29.77,29.66,5,1,0,0.00
2014-5-29,86,71,62,74,66,60,98,85,53,29.85,29.72,5,1,0,0.11
2014-5-30,89,72,63,75,67,63,98,86,44,29.86,29.75,4,1,0,0.12
2014-5-31,83,72,64,68,61,56,98,73,42,29.94,29.83,7,1,0,0.01
2014-6-1,76,67,59,61,57,54,98,72,52,30.08,29.95,6,1,0,0.00
2014-6-2,85,68,54,61,56,53,98,71,41,30.03,29.82,6,1,0,0.00
2014-6-3,84,70,56,66,61,56,98,74,47,29.86,29.69,4,1,0,0.00
2014-6-4,90,76,63,68,64,61,98,70,40,29.71,29.48,7,1,0,0.00
2014-6-5,88,76,66,69,64,58,98,70,41,29.62,29.46,6,1,0,0.00
2014-6-6,89,72,57,59,54,34,91,60,15,29.70,29.61,5,0,0,0.00
2014-6-7,83,71,62,65,61,58,98,75,45,29.80,29.66,5,1,0,0.00
2014-6-8,82,72,64,71,67,62,98,86,68,29.71,29.58,7,1,0,0.00
2014-6-9,88,73,65,72,66,61,98,83,47,29.67,29.56,5,1,0,0.37
2014-6-10,90,76,66,72,67,65,98,77,47,29.69,29.60,5,1,0,0.00
2014-6-11,88,73,63,72,67,62,98,82,52,29.72,29.54,6,1,0,0.28
2014-6-12,86,72,65,69,66,64,98,84,54,29.68,29.54,6,1,0,0.04
2014-6-13,85,73,62,70,64,61,98,77,52,29.64,29.52,4,1,0,0.00
2014-6-14,89,74,62,63,53,37,98,55,16,29.82,29.64,5,1,0,0.00
2014-6-15,90,71,54,64,57,48,85,63,38,29.97,29.82,4,1,0,0.00
2014-6-16,92,75,63,70,66,62,98,76,43,29.96,29.84,5,1,0,0.00
2014-6-17,94,73,65,74,69,64,98,88,43,29.93,29.82,5,1,0,0.08
2014-6-18,97,78,64,72,66,60,98,72,32,29.89,29.76,5,1,0,0.00
2014-6-19,94,78,66,75,68,63,98,74,35,29.86,29.74,6,1,0,0.02
2014-6-20,91,76,65,75,68,64,98,80,49,29.81,29.66,5,1,0,0.12
2014-6-21,89,76,68,72,68,62,98,78,49,29.69,29.53,5,1,0,0.00
2014-6-22,93,76,63,72,64,54,98,71,30,29.74,29.58,5,1,0,0.00
2014-6-23,85,75,68,71,68,66,98,81,56,29.85,29.74,5,1,0,0.02
2014-6-24,85,74,68,77,71,67,98,90,64,29.88,29.74,5,1,0,0.20
2014-6-25,87,75,68,78,71,68,98,89,59,29.75,29.63,5,1,0,0.08
2014-6-26,92,78,68,71,66,60,98,71,35,29.76,29.64,4,1,0,0.00
2014-6-27,84,75,68,79,71,65,98,89,62,29.87,29.74,6,1,0,0.35
2014-6-28,84,74,67,82,72,66,98,95,67,30.00,29.86,6,1,0,0.00
2014-6-29,81,72,66,72,68,64,98,89,70,30.01,29.86,3,0,0,0.05
2014-6-30,87,76,66,86,75,66,98,98,98,29.87,29.67,4,1,0,0.00
2014-7-1,92,80,68,86,76,67,98,90,66,29.73,29.59,5,1,0,0.00
2014-7-2,95,82,70,91,77,69,98,87,56,29.69,29.61,7,1,0,0.00
2014-7-3,93,77,65,80,73,65,98,89,56,29.73,29.58,5,1,0,0.40
2014-7-4,88,72,62,66,60,54,98,69,36,29.96,29.70,5,2,0,0.00
2014-7-5,84,69,56,63,57,55,98,71,38,30.06,29.93,6,1,0,0.00
2014-7-6,86,71,55,70,62,54,98,76,47,29.94,29.75,4,1,0,0.00
2014-7-7,91,76,60,76,67,59,98,78,41,29.81,29.62,6,2,0,0.00
2014-7-8,93,77,64,79,72,63,98,85,50,29.74,29.58,7,2,0,0.00
2014-7-9,84,74,67,83,74,66,98,98,84,29.77,29.65,6,1,0,0.00
2014-7-10,86,74,67,83,72,66,98,95,71,29.86,29.73,3,0,0,0.20
2014-7-11,90,74,64,82,72,64,98,95,60,29.96,29.85,5,1,0,0.03
2014-7-12,89,76,65,83,72,64,98,88,61,29.97,29.84,5,1,0,0.00
2014-7-13,89,77,67,86,75,66,98,95,71,29.88,29.73,6,1,0,0.00
2014-7-14,94,79,68,86,75,67,98,89,58,29.75,29.57,7,1,0,0.00
2014-7-15,90,76,68,82,73,67,98,90,62,29.61,29.48,7,1,0,0.00
2014-7-16,85,72,61,69,62,58,98,76,49,29.70,29.55,5,1,0,0.00
2014-7-17,85,70,59,67,62,59,98,78,51,29.86,29.70,5,0,0,0.00
2014-7-18,75,67,60,75,66,59,98,98,94,29.97,29.86,5,0,0,0.05
2014-7-19,74,67,64,73,66,63,98,98,98,29.95,29.86,2,0,0,0.05
2014-7-20,81,71,64,80,71,63,98,98,92,29.90,29.80,3,0,0,0.00
2014-7-21,81,74,70,80,74,69,98,98,98,29.91,29.81,4,1,0,0.00
2014-7-22,86,76,70,85,76,69,98,98,91,29.93,29.81,6,1,0,0.01
2014-7-23,92,76,66,86,74,65,98,94,73,29.85,29.64,5,1,0,0.01
2014-7-24,84,73,68,83,73,68,98,98,98,29.71,29.58,5,0,0,0.59
2014-7-25,86,73,62,80,71,62,98,94,66,29.82,29.70,4,1,0,0.01
2014-7-26,89,77,67,89,77,66,98,98,98,29.78,29.64,7,1,0,0.29
2014-7-27,87,78,70,86,77,70,98,98,98,29.69,29.49,5,1,0,0.00
2014-7-28,84,74,64,77,66,62,98,80,50,29.65,29.50,10,2,0,0.04
2014-7-29,82,69,60,69,62,58,98,81,49,29.77,29.62,4,1,0,0.00
2014-7-30,81,71,59,69,62,59,98,79,50,29.82,29.75,3,0,0,0.00
2014-7-31,78,69,58,77,68,58,98,98,86,29.90,29.83,3,1,0,0.00
2014-8-1,70,66,63,70,65,63,98,98,98,29.92,29.85,4,0,0,0.86
2014-8-2,76,67,63,75,67,62,98,98,98,29.90,29.81,4,0,0,0.05
2014-8-3,90,73,63,85,71,62,98,93,68,29.88,29.75,3,0,0,0.00
2014-8-4,89,73,61,82,69,60,98,89,50,29.87,29.76,5,0,0,0.01
2014-8-5,88,73,64,88,72,64,98,98,98,29.83,29.71,5,1,0,0.01
2014-8-6,86,73,62,86,73,61,98,98,97,29.77,29.65,4,1,0,0.01
2014-8-7,92,76,66,86,73,66,98,91,65,29.78,29.68,4,0,0,0.00
2014-8-8,85,71,66,84,70,65,98,98,98,29.89,29.78,3,0,0,0.34
2014-8-9,71,69,65,71,69,64,98,98,98,29.87,29.80,4,0,0,0.20
2014-8-10,69,67,64,69,66,64,98,98,98,29.89,29.81,2,0,0,0.17
2014-8-11,71,69,68,70,69,67,98,98,98,29.85,29.72,5,0,0,2.79
2014-8-12,89,74,68,88,73,67,98,98,98,29.73,29.50,4,0,0,0.70
2014-8-13,81,69,60,80,69,60,98,98,98,29.77,29.58,7,1,0,0.00
2014-8-14,80,68,57,79,68,57,98,98,98,29.81,29.68,5,1,0,0.00
2014-8-15,83,71,62,82,70,62,98,98,98,29.80,29.67,4,0,0,0.16
2014-8-16,86,71,59,86,71,58,98,98,98,29.81,29.70,4,1,0,0.00
2014-8-17,86,74,66,86,74,65,98,98,98,29.79,29.68,3,0,0,0.00
2014-8-18,78,72,68,78,72,68,98,98,98,29.70,29.53,3,0,0,0.76
2014-8-19,89,74,66,88,73,65,98,98,98,29.65,29.53,4,0,0,0.20
2014-8-20,86,75,66,86,74,65,98,98,98,29.78,29.64,5,1,0,0.03
2014-8-21,89,76,66,88,76,66,98,98,98,29.86,29.73,6,1,0,0.03
2014-8-22,85,75,67,84,74,66,98,98,98,29.80,29.68,3,0,0,0.02
2014-8-23,90,78,70,89,77,69,98,98,98,29.74,29.61,4,0,0,0.06
2014-8-24,75,70,66,75,70,65,98,98,98,29.88,29.71,7,0,0,0.13
2014-8-25,83,68,59,82,67,59,98,98,98,29.91,29.82,7,0,0,0.01
2014-8-26,86,68,56,82,67,56,98,97,84,29.95,29.82,3,0,0,0.00
2014-8-27,88,71,56,87,70,55,98,98,98,29.89,29.71,3,0,0,0.00
2014-8-28,94,77,67,94,76,66,98,98,98,29.78,29.69,3,0,0,0.00
2014-8-29,86,75,69,85,74,69,98,98,98,29.91,29.77,7,1,0,0.00
2014-8-30,89,76,70,88,76,69,98,98,98,29.96,29.82,5,1,0,0.01
2014-8-31,90,76,68,90,75,68,98,98,98,29.91,29.78,5,1,0,0.10
2014-9-1,91,77,69,91,77,68,98,98,98,29.85,29.74,4,1,0,0.00
2014-9-2,92,76,66,91,75,66,98,98,98,29.83,29.67,6,1,0,0.24
2014-9-3,89,75,69,88,75,68,98,98,98,29.86,29.71,3,0,0,0.26
2014-9-4,86,74,67,85,73,67,98,98,98,29.93,29.83,4,1,0,0.04
2014-9-5,86,75,69,85,74,68,98,98,98,29.96,29.80,5,0,0,0.01
2014-9-6,90,74,68,90,73,67,98,98,98,29.84,29.67,6,1,0,1.39
2014-9-7,85,71,65,84,71,65,98,98,98,29.87,29.72,9,1,0,0.02
2014-9-8,74,67,62,73,67,62,98,98,98,29.92,29.84,6,0,0,0.02
2014-9-9,78,70,64,78,69,63,98,98,98,29.91,29.82,4,0,0,0.00
2014-9-10,76,69,63,76,68,62,98,98,98,29.91,29.77,4,0,0,0.00
2014-9-11,88,74,63,88,73,62,98,98,98,29.80,29.66,6,1,0,0.00
2014-9-12,81,73,68,80,72,67,98,98,98,29.85,29.74,4,0,0,0.00
2014-9-13,80,68,60,80,68,59,98,98,98,29.96,29.80,4,0,0,0.44
2014-9-14,70,63,60,69,63,59,98,98,98,30.06,29.95,2,0,0,0.00
2014-9-15,70,65,61,69,65,61,98,98,98,29.99,29.86,1,0,0,0.00
2014-9-16,85,67,59,84,67,59,98,98,98,29.86,29.69,2,0,0,0.08
2014-9-17,75,64,57,75,63,56,98,98,98,29.79,29.67,4,0,0,0.00
2014-9-18,81,67,60,80,66,59,98,98,98,29.81,29.69,3,0,0,0.00
2014-9-19,76,66,61,75,66,61,98,98,98,30.00,29.81,4,0,0,0.00
2014-9-20,83,67,59,81,66,59,98,97,82,30.00,29.77,0,0,0,0.00
2014-9-21,87,69,56,86,68,56,98,98,98,29.81,29.54,5,1,0,0.00
2014-9-22,78,64,54,77,64,54,98,98,96,29.94,29.64,7,1,0,0.00
2014-9-23,62,56,50,62,56,49,98,98,98,30.12,29.93,5,0,0,0.00
2014-9-24,67,58,50,67,58,50,98,98,98,30.16,30.05,4,0,0,0.03
2014-9-25,78,66,59,78,65,59,98,98,98,30.05,29.93,3,0,0,0.13
2014-9-26,77,67,59,76,66,59,98,98,98,30.01,29.93,5,1,0,0.00
2014-9-27,81,64,55,80,64,55,98,98,98,30.02,29.91,4,1,0,0.00
2014-9-28,77,63,52,76,62,52,98,98,98,29.98,29.84,3,0,0,0.00
2014-9-29,71,64,61,71,64,60,98,98,98,29.85,29.70,3,0,0,0.12
2014-9-30,85,68,55,84,67,55,98,97,76,29.71,29.58,3,0,0,0.00
2014-10-1,82,65,53,81,64,52,98,98,98,29.81,29.67,5,0,0,0.00
2014-10-2,82,67,57,81,66,56,98,98,98,29.89,29.77,6,0,0,0.00
2014-10-3,72,65,59,72,64,58,98,98,98,29.79,29.48,7,0,0,0.30
2014-10-4,64,55,43,64,52,42,98,88,59,29.65,29.44,7,2,0,0.00
2014-10-5,66,49,37,58,46,36,98,92,69,29.77,29.62,7,1,0,0.00
2014-10-6,73,53,39,68,52,38,98,96,78,29.83,29.71,6,1,0,0.02
2014-10-7,70,60,55,69,59,54,98,98,98,29.87,29.71,4,0,0,0.16
2014-10-8,82,65,54,77,62,54,98,91,59,29.83,29.72,9,1,0,0.06
2014-10-9,80,61,49,75,59,49,98,94,73,29.93,29.81,7,1,0,0.00
2014-10-10,76,63,53,76,63,52,98,98,98,29.85,29.74,3,0,0,0.27
2014-10-11,73,67,60,73,66,59,98,98,98,29.86,29.68,4,0,0,0.08
2014-10-12,60,55,52,59,54,52,98,98,98,30.01,29.85,3,0,0,0.24
2014-10-13,64,59,55,63,58,54,98,98,98,30.03,29.89,2,0,0,0.12
2014-10-14,78,70,63,78,69,62,98,98,98,29.89,29.53,8,2,0,0.16
2014-10-15,72,62,54,71,61,53,98,98,98,29.61,29.50,5,1,0,0.80
2014-10-16,67,56,49,67,56,48,98,98,98,29.63,29.50,5,1,0,0.00
2014-10-17,74,58,46,70,57,46,98,96,82,29.68,29.53,6,1,0,0.00
2014-10-18,68,59,51,62,56,51,98,91,66,29.72,29.51,10,2,0,0.00
2014-10-19,70,54,44,58,50,43,98,89,56,29.90,29.72,6,2,0,0.00
2014-10-20,70,52,39,67,52,39,98,97,87,29.90,29.71,5,1,0,0.00
2014-10-21,69,55,46,65,53,45,98,92,69,29.76,29.63,5,2,0,0.00
2014-10-22,65,52,46,58,51,46,98,95,73,29.86,29.72,8,3,0,0.00
2014-10-23,68,53,45,56,50,45,98,90,62,29.86,29.76,9,2,0,0.00
2014-10-24,75,55,43,59,51,43,98,88,49,29.85,29.72,4,1,0,0.00
2014-10-25,77,59,45,64,53,44,98,84,47,29.81,29.65,5,1,0,0.00
2014-10-26,79,63,50,63,53,40,98,75,42,29.74,29.60,9,2,0,0.00
2014-10-27,80,58,41,66,54,40,98,88,57,29.89,29.74,5,1,0,0.00
2014-10-28,83,61,45,74,58,45,98,90,58,29.90,29.76,7,1,0,0.00
2014-10-29,66,58,52,65,57,51,98,98,81,29.79,29.71,7,1,0,0.00